Location: Nebula Knoll Observatory
(43.6666°N, 71.0000°W)
Time: 01:09:14
(UTC-05:00)

Daily predictions for brighter satellites

Satellite Brightness Start Highest point End
(mag) Time Altitude Azimuth Time Altitude Azimuth Time Altitude Azimuth
USA 234 4.1 02:58:39 10° ENE 03:03:57 44° ESE 03:03:57 44° ESE
CZ-4B R/B 4.4 03:10:22 10° NNE 03:14:47 40° ENE 03:14:47 40° ENE
ATLAS 5 CENTAUR R/B 4.1 03:16:52 19° ESE 03:16:52 19° ESE 03:20:07 10° ENE
ADEOS Rocket 4.3 03:14:20 10° N 03:18:11 34° N 03:18:11 34° N
Cosmos 1943 Rocket 4.3 03:22:20 16° SE 03:24:58 22° E 03:29:05 10° NE
Cosmos 1867 4.5 03:31:44 47° ENE 03:31:44 47° ENE 03:36:00 10° NE
Lacrosse 5 4.0 03:32:45 19° SE 03:33:23 20° ESE 03:37:00 10° ENE
Okean-O 4.4 03:41:52 10° NE 03:45:45 29° E 03:47:30 22° SE
CZ-4B DEB 4.2 03:49:44 10° NNE 03:54:46 74° NNE 03:54:46 74° NNE
Meteor 1-31 Rocket 4.4 03:52:20 10° NNE 03:55:52 32° E 03:56:01 32° E
Cosmos 1624 Rocket 4.3 04:02:19 50° SSE 04:03:31 65° ESE 04:08:48 10° NNE
Cosmos 2056 Rocket 3.9 04:03:20 46° SSE 04:04:34 60° ESE 04:09:41 10° NNE
Cosmos 921 Rocket 4.1 04:09:41 38° N 04:09:41 38° N 04:12:23 10° NNE
Cosmos 2369 Rocket 2.0 04:12:46 72° WSW 04:13:11 76° WNW 04:18:53 10° NNE
Cosmos 1933 4.0 04:16:25 49° NNE 04:16:25 49° NNE 04:19:31 10° N
ADEOS II 2.2 04:14:38 10° N 04:19:22 56° NW 04:19:22 56° NW
Cosmos 1862 Rocket 4.2 04:25:03 43° NNW 04:25:03 43° NNW 04:28:07 10° N
Thor Agena Rocket 3.5 04:22:00 10° SSE 04:27:15 85° ENE 04:32:27 10° NNW
Cosmos 1833 4.3 04:23:16 10° NNW 04:28:52 73° ENE 04:34:26 10° SSE
Lacrosse 5 rocket 3.7 04:29:58 11° N 04:30:50 12° N 04:32:12 10° NNE
Okean O Rocket 3.8 04:27:59 10° N 04:28:48 14° NNW 04:28:48 14° NNW
Cosmos 1703 Rocket 4.2 04:27:44 10° S 04:31:57 56° E 04:36:14 10° NNE
Cosmos 1371 Rocket 3.9 04:32:01 55° W 04:32:38 59° WNW 04:37:45 10° NNE
ATLAS CENTAUR R/B 3.6 04:35:03 38° W 04:37:14 51° SW 04:52:09 10° SSE
Nadezhda 2 Rocket 4.3 04:38:36 10° NNW 04:44:39 67° W 04:50:42 10° S
Meteor 1-14 Rocket 4.5 04:39:39 10° N 04:45:32 74° ENE 04:51:15 10° SSE
Cosmos 972 4.4 04:40:47 10° SSW 04:45:39 82° ESE 04:50:49 10° NNE
Cosmos 1452 Rocket 4.1 04:40:57 10° S 04:46:08 59° ESE 04:51:20 10° NNE
USA 234 3.4 04:41:38 10° NE 04:48:01 59° NNW 04:51:19 30° W
Cosmos 2221 Rocket 3.9 04:46:06 10° S 04:50:38 71° E 04:55:12 10° NNE
Cosmos 2266 Rocket 4.4 04:45:52 10° NNW 04:51:25 36° W 04:56:53 10° SSW
Cosmos 2263 4.3 04:51:26 30° WSW 04:53:53 51° WNW 04:59:22 10° NNE
CZ-4B R/B 4.0 04:51:19 10° N 04:56:03 29° WNW 04:56:42 29° WNW
COSMO-SKYMED 1 2.6 04:51:59 10° SSE 04:56:19 84° ENE 05:00:41 10° NNW
ATLAS 5 CENTAUR R/B 1.9 04:58:27 29° WSW 05:00:46 60° NW 05:05:57 10° NNE
ERS-2 4.2 04:58:32 10° NNW 04:59:29 15° NNW 04:59:29 15° NNW
SJ-6F 4.4 05:00:56 10° N 05:05:03 59° WNW 05:09:06 10° SSW
Cosmos 407 Rocket 3.7 05:00:19 10° NNW 05:05:27 47° WSW 05:10:31 10° S
Cosmos 676 Rocket 4.0 05:01:28 10° NNW 05:06:44 66° WSW 05:11:59 10° S
Abrixas 2.6 05:06:59 47° NW 05:07:25 53° NNW 05:10:16 10° ENE
Cosmos 1943 Rocket 2.2 05:03:56 16° SW 05:08:14 55° WNW 05:13:42 10° NNE
Meteor 1-28 Rocket 3.2 05:06:25 10° SSE 05:10:07 85° ENE 05:13:53 10° N
Cosmos 1745 Rocket 4.1 05:04:28 10° N 05:10:41 80° E 05:16:48 10° S
Cosmos 1417 Rocket 4.4 05:06:06 10° SSW 05:12:17 73° W 05:18:26 10° N
Meteor 1-26 Rocket 4.2 05:08:30 10° SSW 05:14:08 61° WNW 05:19:43 10° N
Lacrosse 5 1.8 05:12:00 17° SW 05:15:51 77° NW 05:20:57 10° NE
Meteor 2-10 Rocket 3.4 05:11:05 10° SSW 05:15:59 58° WNW 05:20:59 10° N
CZ-4 R/B 4.0 05:13:01 10° NE 05:16:29 25° E 05:19:53 10° SSE
Sich 1 Rocket 4.3 05:12:48 10° NNW 05:16:49 31° W 05:20:47 10° SSW
CZ-4C R/B 2.4 05:13:51 10° SSW 05:19:05 71° ESE 05:25:01 10° NE
Tiangong 1 2.6 05:19:06 14° SSW 05:21:05 27° SSE 05:23:40 10° E
Okean-O 3.5 05:18:22 10° N 05:22:10 28° WNW 05:25:06 14° WSW
CSL-04 Rocket 4.3 05:17:07 10° NNE 05:22:25 60° ESE 05:27:46 10° S
Meteor 1-25 Rocket 4.2 05:17:26 10° NNW 05:23:16 79° W 05:29:05 10° S
Cosmos 1606 3.4 05:26:15 10° S 05:30:03 60° E 05:33:54 10° NNE
Meteor 1-31 Rocket 4.1 05:27:14 10° NNW 05:30:09 20° WNW 05:31:28 17° W
Cosmos 1140 Rocket 3.5 05:27:01 10° NNW 05:32:12 64° WSW 05:37:21 10° S
Okean 1-7 3.2 05:29:32 10° SSW 05:33:39 46° WNW 05:37:46 10° N
Cosmos 1782 Rocket 4.1 05:30:07 10° NNW 05:34:12 36° W 05:38:16 10° SSW
Cosmos 2297 Rocket 4.0 05:33:03 10° N 05:38:01 30° NE 05:42:57 10° ESE
Meteor 1-10 Rocket 4.3 05:34:42 10° S 05:40:15 85° E 05:45:55 10° NNE
IDEFIX/ARIANE 42P 3.5 05:35:12 10° NNE 05:40:21 54° E 05:45:25 10° S
SKYMED 2 4.4 05:40:45 10° SSW 05:44:33 29° W 05:48:22 10° NW
Cosmos 614 Rocket 3.9 05:40:50 10° NNW 05:45:52 63° WSW 05:50:55 10° S
Cosmos 2219 3.2 05:42:13 10° NNW 05:47:50 63° WSW 05:53:23 10° S
Cosmos 1300 Rocket 4.4 05:43:53 10° N 05:48:16 55° ENE 05:52:35 10° SSE
Cosmos 1850 Rocket 4.0 05:43:09 10° NNW 05:48:30 72° WSW 05:53:46 10° S
CSL-04 Debris 4.3 05:43:04 10° NNE 05:48:31 86° ESE 05:53:54 10° SSW
BREEZE M DEB (TANK) 4.0 05:38:29 11° W 05:50:33 53° NNW 05:54:30 10° ENE
Helios 1B rocket 4.3 05:47:03 10° SE 05:50:44 33° ENE 05:54:27 10° N
Okean 2 Rocket 3.8 05:47:08 10° NNW 05:51:01 31° W 05:54:54 10° SSW
PAYLOAD A 3.8 05:46:37 10° NNE 05:51:21 86° WNW 05:56:09 10° SSW
Cosmos 2227 Rocket 3.1 05:52:09 10° NNW 05:57:43 53° ENE 06:03:14 10° SE
Cosmos 2369 Rocket 3.9 05:55:03 10° WNW 05:58:13 15° NW 06:01:23 10° N
S3M 4.4 05:53:22 10° SW 05:59:20 42° WNW 06:05:17 10° N
Cosmos 1536 4.2 05:58:07 10° N 06:01:58 44° ENE 06:05:48 10° SSE
Ariane Rocket 3.2 05:57:18 10° N 06:02:16 52° WNW 06:07:10 10° SW
Cosmos 1674 Rocket 3.6 05:59:30 10° S 06:03:53 89° E 06:08:20 10° N
Cosmos 1420 Rocket 4.3 06:00:51 10° SW 06:05:49 46° WNW 06:10:49 10° N
IRS-1A Rocket 4.3 06:00:17 10° NNE 06:05:56 90° WNW 06:11:28 10° SSW
